Location: Castillon
(43.0896°N, 0.2156°E)
Time: 16:12:32
(UTC+00:00)

Cosmos 1605 Rocket - Pass Details

Date: 16 June 2021
Orbit: 944 x 1006 km, 82.9° (Epoch: 04 August)

Event Time Altitude Azimuth Distance (km) Brightness Sun altitude
Rises 20:30:54 0° 352° (N) 3,746 7.9 -8.0°
Reaches altitude 10° 20:33:27 10° 353° (N) 2,791 7.2 -8.3°
Maximum altitude 20:39:54 84° 83° (E) 1,013 4.1 -9.2°
Drops below altitude 10° 20:46:15 10° 171° (S) 2,751 5.9 -10.0°
Enters shadow 20:47:21 - 172° (S) 3,158 6.2 -10.1°
